CA-0484 weather

CLOSED Barker Field
Toronto, Ontario, Canada

Public forecast

Using degrees Celsius for public forecast. Weather courtesy of forecast.io.

METAR (pilot weather report)

Closest report is Billy Bishop Toronto City Centre Airport, 5.8 nm (10.8 km) SSE. Retrieved 2019/05/25 16:35 UTC (21 minutes ago):

CYTZ 251635Z AUTO 08010KT 6SM BR FEW003 OVC008 12/12 A2995 RMK LTNG DIST N NE SLP145

TAF (pilot weather forecast)

Closest forecast is Billy Bishop Toronto City Centre Airport, 5.8 nm (10.8 km) SSE. Retrieved 2019/05/25 14:44 UTC (2 hours ago):

TAF CYTZ 251339Z 2514/2614 07007KT P6SM -SHRA OVC030 TEMPO 2514/2520 2SM SHRA BR BKN020 PROB30 2514/2516 VRB15G30KT 1SM +TSRA BR BKN005 OVC020CB FM252000 09007KT 2SM SHRA BR OVC005 PROB30 2520/2523 VRB15G35KT 1SM +TSRA BR BKN007 OVC020CB FM252300 23010KT P6SM BKN030 FM260200 24010KT P6SM SCT010 BKN240 TEMPO 2602/2609 SCT008 BKN010 RMK FCST BASED ON AUTO OBS. NXT FCST BY 252000Z